Home   Weather   Mongomo   Past weeks

Flag for Equatorial Guinea Past Weather in Mongomo, Equatorial Guinea — Yesterday and Last 2 Weeks

Now
68 °F

Drizzle. Fog.


Feels Like: 68 °F
Forecast: 68 / 82 °F
Wind: 5 mph from Southwest

Location: Yaounde Airport

Current Time: Sep 26, 2016 at 8:17:49 AM

Latest Report: Sep 26, 2016 at 7:00 AM


Visibility: 2 mi

Pressure: 30.04 "Hg (27.89 "Hg at 638m altitude)

Humidity: 100%

Dew Point: 68 °F

Location of MongomoLocation

Past Weather in Mongomo — Graph

°F

Mongomo Temperature Yesterday

Maximum temperature yesterday: 81 °F (at 11:00 AM)
Minimum temperature yesterday: 68 °F (at 1:00 AM)
Average temperature yesterday: 73 °F

High & Low Weather Summary for the Past Weeks

 TemperatureHumidityPressure
High86 °F (Sep 18, 3:00 PM)100% (Sep 12, 7:00 AM)30.15 "Hg (Sep 12, 7:00 AM)
Low64 °F (Sep 16, 2:00 AM)55% (Sep 18, 3:00 PM)29.92 "Hg (Sep 25, 4:00 PM)
Average73 °F87%30.04 "Hg
* Reported Sep 11 6:00 AM — Sep 26 6:00 AM, Mongomo, Weather by CustomWeather, © 2016

Note: Actual official high and low records may vary slightly from our data, if they occured in-between our weather recording intervals... More about our weather records

Advertising

Mongomo Weather History for the Previous 24 Hours

Scroll right to see more
 ConditionsComfort  
Time TempWeatherWind HumidityBarometerVisibility
6:00 AM
Mon, Sep 26
68 °FPassing clouds.3 mph100%30.04 "HgN/A
5:00 AM68 °FPassing clouds.3 mph100%30.01 "Hg5 mi
4:00 AM68 °FLight rain. Fog.3 mph100%30.01 "Hg1 mi
3:00 AM70 °FFog.2 mph94%29.98 "Hg1 mi
2:00 AM70 °FPassing clouds.3 mph94%30.01 "Hg5 mi
1:00 AM70 °FPassing clouds.3 mph94%30.01 "Hg5 mi
12:00 AM72 °FThunderstorms. Passing clouds.3 mph88%30.04 "Hg5 mi
11:00 PM
Sun, Sep 25
72 °FThunderstorms. Passing clouds.8 mph94%30.04 "Hg5 mi
10:00 PM72 °FThunderstorms. Passing clouds.3 mph94%30.04 "HgN/A
9:00 PM73 °FThunderstorms. Passing clouds.2 mph89%30.04 "HgN/A
8:00 PM73 °FThunderstorms. Passing clouds.2 mph89%30.01 "HgN/A
7:00 PM72 °FThunderstorms. Passing clouds.No wind100%29.98 "HgN/A
6:00 PM73 °FPassing clouds.1 mph94%29.95 "HgN/A
5:00 PM75 °FPassing clouds.2 mph89%29.92 "HgN/A
4:00 PM75 °FScattered clouds.3 mph83%29.92 "HgN/A
3:00 PM73 °FLight rain. Partly sunny.9 mph94%29.95 "Hg1 mi
2:00 PM81 °FPartly sunny.6 mph66%29.98 "HgN/A
12:00 PM81 °FPartly sunny.3 mph66%30.04 "HgN/A
11:00 AM81 °FPartly sunny.3 mph62%30.04 "HgN/A
10:00 AM79 °FPartly sunny.5 mph74%30.07 "HgN/A
9:00 AM75 °FPartly sunny.5 mph78%30.09 "Hg6 mi
8:00 AM70 °FPartly sunny.2 mph94%30.07 "Hg6 mi
Weather by CustomWeather, © 2016

See weather overviewHow to use our weather pages